CCA1426 ZUUU-ZBAA

Flight info

Callsign CCA1426
Flight time N/A
Altitude 39100
Route IGNAK
Aircraft A359/H-SDE2E3FGILRWXY/LB2

Departure

Time 2026-04-29 14:27
Airport Chengdu Shuangliu International Airport (ZUUU)

Arrival

Time N/A
Airport Beijing Capital International Airport (ZBAA)
Time Latitude Longitude Altitude Speed Heading
2026-04-29 13:54 30.56967 103.94872 1694 ft 0 kts 77°
2026-04-29 14:13 30.56964 103.94855 1694 ft 2 kts 77°
2026-04-29 14:14 30.56960 103.94838 1694 ft 2 kts 77°
2026-04-29 14:14 30.56957 103.94821 1694 ft 2 kts 65°
2026-04-29 14:14 30.56949 103.94807 1694 ft 2 kts 44°
2026-04-29 14:14 30.56937 103.94796 1694 ft 2 kts 27°
2026-04-29 14:15 30.56923 103.94789 1694 ft 2 kts 22°
2026-04-29 14:15 30.56910 103.94782 1694 ft 2 kts 25°
2026-04-29 14:15 30.56896 103.94775 1694 ft 2 kts 26°
2026-04-29 14:15 30.56883 103.94768 1694 ft 2 kts 22°
2026-04-29 14:16 30.56869 103.94765 1694 ft 2 kts 351°
2026-04-29 14:16 30.56855 103.94770 1694 ft 2 kts 325°
2026-04-29 14:16 30.56845 103.94782 1694 ft 2 kts 299°
2026-04-29 14:16 30.56839 103.94797 1694 ft 2 kts 288°
2026-04-29 14:17 30.56835 103.94813 1694 ft 0 kts 291°
2026-04-29 14:17 30.56834 103.94814 1694 ft 0 kts 292°
2026-04-29 14:19 30.56836 103.94810 1694 ft 1 kts 292°
2026-04-29 14:19 30.56840 103.94797 1694 ft 2 kts 292°
2026-04-29 14:19 30.56847 103.94777 1694 ft 3 kts 292°
2026-04-29 14:20 30.56856 103.94750 1694 ft 4 kts 292°
2026-04-29 14:20 30.56869 103.94715 1694 ft 5 kts 292°
2026-04-29 14:20 30.56869 103.94684 1694 ft 4 kts 248°
2026-04-29 14:20 30.56846 103.94660 1694 ft 4 kts 212°
2026-04-29 14:21 30.56814 103.94642 1694 ft 5 kts 203°
2026-04-29 14:21 30.56774 103.94621 1694 ft 6 kts 204°
2026-04-29 14:21 30.56732 103.94602 1694 ft 6 kts 201°
2026-04-29 14:21 30.56685 103.94581 1694 ft 7 kts 202°
2026-04-29 14:22 30.56633 103.94556 1694 ft 8 kts 202°
2026-04-29 14:22 30.56575 103.94531 1694 ft 9 kts 202°
2026-04-29 14:22 30.56512 103.94501 1694 ft 10 kts 201°
2026-04-29 14:22 30.56444 103.94469 1694 ft 10 kts 202°
2026-04-29 14:23 30.56371 103.94435 1694 ft 11 kts 201°
2026-04-29 14:23 30.56293 103.94399 1694 ft 12 kts 201°
2026-04-29 14:23 30.56241 103.94355 1694 ft 9 kts 247°
2026-04-29 14:23 30.56248 103.94305 1694 ft 1 kts 301°
2026-04-29 14:24 30.56255 103.94289 1694 ft 2 kts 295°
2026-04-29 14:24 30.56265 103.94264 1694 ft 3 kts 295°
2026-04-29 14:24 30.56276 103.94233 1694 ft 4 kts 293°
2026-04-29 14:24 30.56290 103.94195 1694 ft 5 kts 293°
2026-04-29 14:25 30.56307 103.94150 1694 ft 6 kts 292°
2026-04-29 14:25 30.56325 103.94099 1694 ft 7 kts 293°
2026-04-29 14:25 30.56349 103.94045 1694 ft 7 kts 311°
2026-04-29 14:25 30.56398 103.94028 1694 ft 8 kts
2026-04-29 14:26 30.56455 103.94051 1694 ft 11 kts 22°
2026-04-29 14:26 30.56739 103.94183 1694 ft 80 kts 24°
2026-04-29 14:26 30.57471 103.94529 1695 ft 143 kts 22°
2026-04-29 14:26 30.58556 103.95015 1795 ft 185 kts 22°
2026-04-29 14:27 30.59809 103.95583 2371 ft 195 kts 24°
2026-04-29 14:27 30.61013 103.96145 3338 ft 184 kts 24°
2026-04-29 14:27 30.62176 103.96711 4042 ft 186 kts 24°
2026-04-29 14:28 30.64582 103.97858 5396 ft 190 kts 21°
2026-04-29 14:28 30.65796 103.98427 6066 ft 191 kts 20°
2026-04-29 14:28 30.67025 103.98982 6730 ft 191 kts 19°
2026-04-29 14:28 30.68217 103.99638 7347 ft 193 kts 36°
2026-04-29 14:29 30.69096 104.00848 7919 ft 197 kts 57°
2026-04-29 14:29 30.69789 104.02190 8532 ft 196 kts 59°
2026-04-29 14:29 30.70468 104.03620 8912 ft 210 kts 60°
2026-04-29 14:29 30.71192 104.05144 9288 ft 225 kts 60°
2026-04-29 14:30 30.71991 104.06790 9684 ft 241 kts 59°
2026-04-29 14:30 30.72840 104.08511 10076 ft 256 kts 59°
2026-04-29 14:30 30.73771 104.10381 10496 ft 272 kts 59°
2026-04-29 14:30 30.74747 104.12343 10884 ft 289 kts 59°
2026-04-29 14:31 30.75796 104.14394 11254 ft 305 kts 53°
2026-04-29 14:31 30.77253 104.16266 11634 ft 319 kts 38°
2026-04-29 14:31 30.79132 104.17718 12012 ft 333 kts 27°
2026-04-29 14:31 30.81233 104.19035 12350 ft 349 kts 26°
2026-04-29 14:32 30.83442 104.20389 12652 ft 365 kts 26°
2026-04-29 14:32 30.85736 104.21811 12948 ft 381 kts 27°
2026-04-29 14:32 30.88102 104.23298 13419 ft 389 kts 27°
2026-04-29 14:32 30.90492 104.24813 14031 ft 393 kts 28°
2026-04-29 14:33 30.92753 104.26569 14660 ft 396 kts 37°
2026-04-29 14:33 30.94807 104.28757 15319 ft 399 kts 45°
2026-04-29 14:33 30.96602 104.31217 15934 ft 401 kts 49°
2026-04-29 14:33 30.98334 104.33746 16502 ft 404 kts 50°
2026-04-29 14:34 31.00078 104.36313 17076 ft 407 kts 49°
2026-04-29 14:34 31.01857 104.38920 17650 ft 409 kts 49°
2026-04-29 14:34 31.03621 104.41495 18204 ft 411 kts 49°
2026-04-29 14:34 31.05399 104.44083 18722 ft 414 kts 48°
2026-04-29 14:35 31.07223 104.46733 19198 ft 418 kts 48°
2026-04-29 14:35 31.09051 104.49391 19664 ft 422 kts 47°
2026-04-29 14:35 31.10881 104.52045 20130 ft 426 kts 47°
2026-04-29 14:35 31.12566 104.54900 20590 ft 434 kts 57°
2026-04-29 14:36 31.13779 104.58154 21069 ft 442 kts 69°
2026-04-29 14:36 31.14466 104.61687 21537 ft 449 kts 77°
2026-04-29 14:36 31.14924 104.65300 21961 ft 454 kts 79°
2026-04-29 14:36 31.15348 104.68967 22351 ft 459 kts 79°
2026-04-29 14:37 31.15774 104.72673 22764 ft 463 kts 79°
2026-04-29 14:37 31.16218 104.76444 23158 ft 467 kts 78°
2026-04-29 14:37 31.16668 104.80179 23566 ft 470 kts 78°
2026-04-29 14:37 31.17131 104.83978 23929 ft 474 kts 78°
2026-04-29 14:38 31.17599 104.87799 24300 ft 478 kts 78°
2026-04-29 14:38 31.18066 104.91626 24677 ft 481 kts 78°
2026-04-29 14:38 31.18543 104.95524 25040 ft 484 kts 78°
2026-04-29 14:38 31.19014 104.99393 25418 ft 486 kts 78°
2026-04-29 14:39 31.19493 105.03342 25745 ft 490 kts 78°
2026-04-29 14:39 31.19966 105.07243 26054 ft 493 kts 78°
2026-04-29 14:39 31.20445 105.11221 26348 ft 497 kts 78°
2026-04-29 14:39 31.20930 105.15261 26670 ft 500 kts 78°
2026-04-29 14:40 31.21406 105.19232 26963 ft 503 kts 78°
2026-04-29 14:40 31.21895 105.23331 27269 ft 506 kts 78°
2026-04-29 14:40 31.22383 105.27434 27543 ft 509 kts 77°
2026-04-29 14:40 31.22910 105.31484 27792 ft 510 kts 73°
2026-04-29 14:41 31.23881 105.35461 28066 ft 506 kts 64°
2026-04-29 14:41 31.25341 105.39156 28392 ft 500 kts 54°
2026-04-29 14:41 31.27206 105.42616 28677 ft 498 kts 50°
2026-04-29 14:41 31.29142 105.45941 28895 ft 500 kts 49°
2026-04-29 14:42 31.31115 105.49290 29178 ft 502 kts 50°
2026-04-29 14:42 31.33112 105.52714 29444 ft 505 kts 49°
2026-04-29 14:42 31.35054 105.56086 29684 ft 507 kts 50°
2026-04-29 14:42 31.37038 105.59560 29919 ft 509 kts 50°
2026-04-29 14:43 31.38991 105.62986 30113 ft 512 kts 50°
2026-04-29 14:43 31.40977 105.66466 30369 ft 513 kts 50°
2026-04-29 14:43 31.42937 105.69907 30658 ft 513 kts 50°
2026-04-29 14:43 31.44912 105.73385 30977 ft 512 kts 50°
2026-04-29 14:44 31.46869 105.76836 31276 ft 512 kts 50°
2026-04-29 14:44 31.48850 105.80328 31559 ft 512 kts 50°
2026-04-29 14:44 31.50804 105.83772 31784 ft 513 kts 50°
2026-04-29 14:44 31.52800 105.87297 32086 ft 512 kts 50°
2026-04-29 14:45 31.54769 105.90772 32395 ft 511 kts 50°
2026-04-29 14:45 31.56716 105.94217 32674 ft 511 kts 50°
2026-04-29 14:45 31.58682 105.97693 32941 ft 511 kts 50°
2026-04-29 14:45 31.60651 106.01177 33199 ft 511 kts 50°
2026-04-29 14:46 31.62601 106.04633 33476 ft 510 kts 50°
2026-04-29 14:46 31.64565 106.08120 33790 ft 509 kts 51°
2026-04-29 14:46 31.66504 106.11567 34005 ft 509 kts 50°
2026-04-29 14:46 31.68451 106.15031 34258 ft 508 kts 50°
2026-04-29 14:47 31.70374 106.18455 34506 ft 508 kts 50°
2026-04-29 14:47 31.72328 106.21934 34710 ft 509 kts 50°
2026-04-29 14:47 31.74270 106.25394 34882 ft 509 kts 50°
2026-04-29 14:47 31.76211 106.28867 35070 ft 509 kts 50°
2026-04-29 14:48 31.78165 106.32355 35247 ft 510 kts 50°
2026-04-29 14:48 31.80101 106.35818 35454 ft 510 kts 49°
2026-04-29 14:48 31.82049 106.39308 35712 ft 509 kts 50°
2026-04-29 14:48 31.83964 106.42739 35876 ft 509 kts 50°
2026-04-29 14:49 31.85912 106.46235 36062 ft 510 kts 50°
2026-04-29 14:49 31.87861 106.49727 36219 ft 509 kts 49°
2026-04-29 14:49 31.89798 106.53195 36397 ft 510 kts 49°
2026-04-29 14:49 31.91746 106.56682 36500 ft 510 kts 49°
2026-04-29 14:50 31.93701 106.60197 36512 ft 508 kts 49°
2026-04-29 14:50 31.95644 106.63686 36704 ft 508 kts 49°
2026-04-29 14:50 31.97589 106.67191 36842 ft 509 kts 49°
2026-04-29 14:50 31.99501 106.70655 36956 ft 510 kts 50°
2026-04-29 14:51 32.01436 106.74163 37055 ft 511 kts 50°
2026-04-29 14:51 32.03383 106.77689 37187 ft 511 kts 49°
2026-04-29 14:51 32.05295 106.81160 37313 ft 511 kts 49°
2026-04-29 14:51 32.07229 106.84666 37480 ft 510 kts 49°
2026-04-29 14:52 32.09172 106.88186 37653 ft 509 kts 49°
2026-04-29 14:52 32.13050 106.95188 37847 ft 510 kts 49°
2026-04-29 14:53 32.16944 107.02232 37967 ft 513 kts 49°
2026-04-29 14:53 32.20813 107.09286 38105 ft 514 kts 49°
2026-04-29 14:54 32.24764 107.16361 38259 ft 512 kts 46°
2026-04-29 14:54 32.29162 107.22845 38429 ft 503 kts 39°
2026-04-29 14:55 32.33924 107.28838 38576 ft 502 kts 38°
2026-04-29 14:55 32.38736 107.34825 38664 ft 504 kts 38°
2026-04-29 14:56 32.43563 107.40876 38708 ft 506 kts 38°
2026-04-29 14:56 32.48380 107.46944 38865 ft 506 kts 38°
2026-04-29 14:57 32.53162 107.52984 38978 ft 507 kts 38°
2026-04-29 14:57 32.57993 107.59096 39063 ft 508 kts 38°
2026-04-29 14:58 32.62918 107.65060 39125 ft 504 kts 34°
2026-04-29 14:58 32.68208 107.70380 39161 ft 499 kts 30°
2026-04-29 14:59 32.73661 107.75537 39168 ft 500 kts 30°
2026-04-29 14:59 32.79094 107.80671 39204 ft 501 kts 30°
2026-04-29 15:00 32.84507 107.85808 39242 ft 501 kts 30°
2026-04-29 15:00 32.89979 107.91011 39212 ft 504 kts 30°
2026-04-29 15:01 32.95448 107.96223 39258 ft 503 kts 30°
2026-04-29 15:01 33.00886 108.01415 39300 ft 504 kts 30°
2026-04-29 15:02 33.06351 108.06641 39301 ft 505 kts 30°
2026-04-29 15:02 33.11840 108.11897 39299 ft 506 kts 30°
2026-04-29 15:03 33.17347 108.17161 39305 ft 508 kts 30°
2026-04-29 15:03 33.22860 108.22463 39310 ft 509 kts 31°
2026-04-29 15:04 33.28374 108.27698 39325 ft 507 kts 28°
2026-04-29 15:04 33.34188 108.32310 39326 ft 499 kts 22°
2026-04-29 15:05 33.39259 108.35541 39331 ft 495 kts 18°